User: anonymous   Login
Location: Kailua
(21.4020°N, 157.7390°W)
Time: 09:50:29
(UTC-10:00)
Language:

Cosmos 2221 Rocket - Orbit

View from above orbital plane
View from above orbital plane
View from above satellite
View from above satellite

Ground track
Ground track

The orbit data is extracted from the following two-line orbital elements,

1 22237U 92080B   16242.01981519  .00000108  00000-0  11695-4 0  9999
2 22237  82.5122  29.4928 0021283  81.6826  57.3899 14.78276612280273
Epoch (UTC): 29 August 2016 00:28:32
Eccentricity: 0.0021283
inclination: 82.5122°
perigee height: 620 km
apogee height: 650 km
right ascension of ascending node: 29.4928°
argument of perigee: 81.6826°
revolutions per day: 14.78276612
mean anomaly at epoch: 57.3899°
orbit number at epoch: 28027

The dashed part of the orbit path shows where the satellite is in the earth's shadow,  

DLR